Home   Weather   Leoben   Past weeks

Flag for Austria Past Weather in Leoben, Styria, Austria — Yesterday and Last 2 Weeks

Now
30 °F

Passing clouds.


Feels Like: 30 °F
Forecast: 15 / 41 °F
Wind: 1 mph from North

Location: Zeltweg

Current Time: Dec 5, 2016 at 11:41:28 am

Latest Report: Dec 5, 2016 at 10:50 am


Visibility: 5 mi

Pressure: 30.39 "Hg (28.40 "Hg at 540m altitude)

Humidity: 75%

Dew Point: 23 °F

Location of LeobenLocation

Past Weather in Leoben — Graph

°F

Leoben Temperature Yesterday

Maximum temperature yesterday: 36 °F (at 1:50 pm)
Minimum temperature yesterday: 19 °F (at 6:50 am)
Average temperature yesterday: 27 °F

High & Low Weather Summary for the Past Weeks

 TemperatureHumidityPressure
High61 °F (Nov 22, 11:50 am)100% (Nov 23, 8:20 am)30.48 "Hg (Nov 23, 8:20 am)
Low16 °F (Nov 30, 4:50 am)21% (Dec 2, 5:50 am)29.80 "Hg (Dec 2, 5:50 am)
Average40 °F72%30.11 "Hg
* Reported Nov 20 10:20 am — Dec 5 10:20 am, Leoben, Weather by CustomWeather, © 2016

Note: Actual official high and low records may vary slightly from our data, if they occured in-between our weather recording intervals... More about our weather records

Advertising

Leoben Weather History for the Previous 24 Hours

Scroll right to see more
 ConditionsComfort  
Time TempWeatherWind HumidityBarometerVisibility
10:20 am
Mon, Dec 5
28 °FPassing clouds.1 mph80%30.39 "Hg5 mi
9:50 am27 °FPassing clouds.1 mph93%30.39 "Hg5 mi
9:20 am23 °FPassing clouds.1 mph86%30.39 "Hg5 mi
8:50 am21 °FScattered clouds.2 mph93%30.39 "Hg5 mi
8:20 am19 °FScattered clouds.1 mph93%30.39 "Hg5 mi
7:50 am19 °FScattered clouds.1 mph86%30.39 "Hg5 mi
7:20 am19 °FPassing clouds.1 mph93%30.39 "Hg5 mi
6:50 am18 °FPassing clouds.3 mph93%30.39 "Hg5 mi
5:50 am18 °FPassing clouds.1 mph93%30.39 "Hg5 mi
4:50 am19 °FPassing clouds.1 mph93%30.39 "Hg6 mi
9:50 pm
Sun, Dec 4
23 °FPassing clouds.1 mph86%30.39 "Hg6 mi
8:50 pm23 °FPassing clouds.2 mph86%30.39 "Hg6 mi
7:50 pm23 °FPassing clouds.2 mph86%30.36 "Hg6 mi
6:50 pm25 °FPassing clouds.1 mph93%30.36 "Hg6 mi
5:50 pm28 °FPassing clouds.3 mph80%30.33 "Hg6 mi
4:50 pm30 °FPassing clouds.1 mph80%30.33 "Hg12 mi
3:50 pm36 °FPartly sunny.5 mph65%30.30 "Hg12 mi
2:50 pm36 °FPartly sunny.5 mph65%30.30 "Hg12 mi
1:50 pm36 °FPartly sunny.5 mph65%30.30 "Hg12 mi
12:50 pm34 °FPartly sunny.2 mph70%30.30 "Hg12 mi
11:50 am30 °FPartly sunny.1 mph80%30.33 "Hg9 mi
Weather by CustomWeather, © 2016

See weather overviewHow to use our weather pages